Terminal Aerodrome Forecast
Issued by NWS

Home | Current Version | Previous Version | Text Only | Print | Product List | Glossary On
Versions: 1 2 3 4 5 6 7 8 9 10 11 12
287
FTUS45 KRIW 131730
TAFLND
TAF
KLND 131730Z 1318/1418 VRB05KT P6SM SCT110 BKN250
     FM132100 33006KT P6SM VCSH SCT025 OVC050
     FM140030 33006KT 2SM -SN OVC016
     FM140600 VRB04KT P6SM VCSH OVC024
     FM141100 VRB04KT P6SM SCT024 BKN040=

USA.gov is the U.S. government's official web portal to all federal, state and local government web resources and services.